Volver al catálogo

COSMOS 1275 DEB

ActivoPO
NORAD 12655·DEBRIS·🇷🇺 Russia

Lanzado Jun 4, 1981 desde Plesetsk Cosmodrome

Loading…

Próximos Pases (próximas 24 horas)

TLE

ActualizadoSource: Space-Track

Época: Sep 14, 2026, 13:00 UTC

1 12655U 81053K   26257.54209760  .00000108  00000-0  93582-4 0  9991
2 12655  82.9628 165.5558 0033054 175.5550 301.2956 13.76840495265695

Sigue COSMOS 1275 DEB en tiempo real con AllMySat

Download on the App Store